Location: Venise Bay
(45.0825°N, 73.1481°W)
Time: 21:01:34
(UTC-05:00)

ISS - Pass Details

Date: 21 January 2020
Orbit: 415 x 422 km, 51.6° (Epoch: 26 February)

Event Time Altitude Azimuth Distance (km) Brightness Sun altitude
Rises 17:41:17 0° 202° (SSW) 2,366 0.7 -10.1°
Reaches altitude 10° 17:43:43 10° 185° (S) 1,504 -0.6 -10.5°
Maximum altitude 17:46:17 20° 136° (SE) 1,034 -2.0 -10.9°
Enters shadow 17:47:54 15° 100° (E) 1,243 -1.9 -11.2°
